Location: Sternwarte Stuttgart
(48.7670°N, 9.1830°E)
Time: 22:58:28
(UTC+01:00)

Genesis I - Pass Details

Date: 24 January 2019
Orbit: 476 x 550 km, 64.5° (Epoch: 14 February)

Event Time Altitude Azimuth Distance (km) Brightness Sun altitude
Exits shadow 05:50:33 76° 282° (WNW) 569 3.1 -21.6°
Maximum altitude 05:50:42 77° 309° (NW) 566 3.1 -21.6°
Drops below altitude 10° 05:54:50 10° 37° (NE) 1,833 6.4 -20.9°
Sets 05:57:04 0° 39° (NE) 2,733 7.3 -20.6°
